SM7SJR-13 Weather Reports


Display with metric or nautical units.
time (UTC)temp
F
wind
direction
speed
MPH
gust
MPH
rain 1hr
in
rain 24hr
in
rain mn
in
humidity
%
barometer
mb
20260506034504 36 345 3.0 5.0 0.00 0.00 0.00 96 1011.2
20260506033005 36 342 2.0 3.0 0.00 0.00 0.00 95 1011.2
20260506031504 36 342 0.0 5.0 0.00 0.00 0.00 95 1011.2
20260506030003 36 343 0.0 3.0 0.00 0.00 0.00 96 1011.1
20260506024503 36 342 0.0 0.0 0.00 0.00 0.00 96 1011.1
20260506023005 35 343 0.0 0.0 0.00 0.00 0.00 96 1011.1
20260506021504 34 343 0.0 0.0 0.00 0.00 0.00 95 1011.0
20260506020004 33 343 0.0 0.0 0.00 0.00 0.00 95 1011.0
20260506013004 33 343 0.0 3.0 0.00 0.00 0.00 94 1010.7
20260506011504 33 342 2.0 5.0 0.00 0.00 0.00 94 1010.5
20260506010004 33 342 2.0 6.0 0.00 0.00 0.00 94 1010.5
20260506004504 33 344 3.0 5.0 0.00 0.00 0.00 94 1010.0
20260506003004 33 344 0.0 5.0 0.00 0.00 0.00 94 1010.0
20260506001503 34 342 3.0 6.0 0.00 0.00 0.00 94 1010.0
20260506000004 34 343 3.0 6.0 0.00 0.00 0.00 93 1010.0
20260505234503 35 341 2.0 5.0 0.00 0.00 0.00 93 1010.0
20260505233004 36 343 3.0 5.0 0.00 0.00 0.00 94 1010.0
20260505231503 35 348 2.0 6.0 0.00 0.00 0.00 93 1009.8
20260505223004 36 347 2.0 7.0 0.00 0.00 0.00 92 1010.0
20260505221504 38 354 3.0 9.0 0.00 0.00 0.00 94 1009.8
20260505214503 36 27 0.0 0.0 0.00 0.00 0.00 92 1009.2
20260505213004 36 27 0.0 0.0 0.00 0.00 0.00 92 1009.2
20260505211504 37 27 2.0 5.0 0.00 0.00 0.00 91 1009.3
20260505210003 37 43 2.0 5.0 0.00 0.00 0.00 90 1009.0
20260505204504 38 58 3.0 5.0 0.00 0.00 0.00 90 1008.8
20260505203004 39 70 2.0 3.0 0.00 0.00 0.00 89 1008.8
20260505201504 39 71 2.0 5.0 0.00 0.00 0.00 88 1008.8
20260505194504 42 98 0.0 0.0 0.00 0.00 0.00 85 1008.3
20260505193004 43 98 0.0 0.0 0.00 0.00 0.00 84 1008.3
20260505191504 44 98 0.0 0.0 0.00 0.00 0.00 81 1008.2
20260505184504 50 98 1.0 5.0 0.00 0.00 0.00 71 1008.1
20260505181503 52 110 2.0 8.0 0.00 0.00 0.00 65 1007.9
20260505180004 53 103 1.0 7.0 0.00 0.00 0.00 63 1007.5
20260505174504 54 109 1.0 10.0 0.00 0.00 0.00 61 1007.5
20260505173003 55 100 5.0 12.0 0.00 0.00 0.00 59 1007.5
20260505171505 55 101 6.0 10.0 0.00 0.00 0.00 57 1007.3
20260505170003 56 76 6.0 12.0 0.00 0.00 0.00 52 1007.3
20260505164504 57 79 7.0 13.0 0.00 0.00 0.00 50 1007.3
20260505163004 58 63 6.0 12.0 0.00 0.00 0.00 44 1007.3
20260505161503 58 61 3.0 12.0 0.00 0.00 0.00 36 1007.3
20260505153004 63 84 3.0 9.0 0.00 0.00 0.00 27 1007.1
20260505151503 63 302 4.0 14.0 0.00 0.00 0.00 25 1007.1
20260505124505 64 285 6.0 14.0 0.00 0.00 0.00 32 1007.2
20260505123004 63 322 7.0 13.0 0.00 0.00 0.00 36 1007.2
20260505121503 61 307 2.0 14.0 0.00 0.00 0.00 36 1007.2
20260505114503 63 266 4.0 16.0 0.00 0.00 0.00 38 1007.1
20260505111503 63 242 10.0 17.0 0.00 0.00 0.00 40 1007.2
20260505101504 61 257 5.0 16.0 0.00 0.00 0.00 43 1007.2
20260505094505 60 247 11.0 18.0 0.00 0.00 0.00 44 1007.3
20260505093004 61 291 6.0 15.0 0.00 0.00 0.00 45 1007.3
20260505091504 61 303 9.0 14.0 0.00 0.00 0.00 47 1007.3
20260505090005 59 286 6.0 17.0 0.00 0.00 0.00 50 1007.3
20260505084503 59 278 6.0 15.0 0.00 0.01 0.00 54 1007.4
20260505081503 57 248 9.0 15.0 0.00 0.01 0.00 58 1007.4
20260505080004 56 273 7.0 16.0 0.00 0.01 0.00 60 1007.4
20260505074503 57 263 7.0 16.0 0.00 0.01 0.00 60 1007.4
20260505073004 56 263 4.0 12.0 0.00 0.01 0.00 63 1007.5
20260505071504 55 250 5.0 15.0 0.00 0.01 0.00 66 1007.5
20260505070004 55 276 7.0 18.0 0.00 0.01 0.00 65 1007.5
20260505064503 54 241 5.0 15.0 0.00 0.01 0.00 67 1007.3
20260505063004 53 257 7.0 15.0 0.00 0.01 0.00 69 1007.3
20260505061504 52 260 10.0 15.0 0.00 0.01 0.00 71 1007.4
20260505060003 51 271 8.0 13.0 0.00 0.01 0.00 72 1007.4
20260505054504 50 267 10.0 17.0 0.00 0.01 0.00 76 1007.4
20260505053004 49 268 9.0 13.0 0.00 0.01 0.00 79 1007.4
20260505051504 48 277 5.0 12.0 0.00 0.01 0.00 85 1007.4
20260505041504 38 247 1.0 5.0 0.00 0.07 0.00 95 1007.1
20260505040005 37 240 2.0 5.0 0.00 0.07 0.00 95 1007.1